ASX360 LSZH-EDDH

Flight info

Callsign ASX360
Flight time 1h 7m
Altitude 38000
Route DEGES Z1 ETAGO Z3 LBU N851 OSBIT P605 NOLGO NOLGO6A
Aircraft A20N/M-SDE2E3FGHIJ1RWXY/LB1

Departure

Time 2026-05-07 06:24
Airport Zürich Airport (LSZH)

Arrival

Time 2026-05-07 07:31
Airport Hamburg Helmut Schmidt Airport (EDDH)
Time Latitude Longitude Altitude Speed Heading
2026-05-07 06:11 47.46040 8.55737 1378 ft 0 kts
2026-05-07 06:17 47.46019 8.55734 1404 ft 4 kts
2026-05-07 06:17 47.45992 8.55730 1409 ft 4 kts
2026-05-07 06:17 47.45969 8.55726 1409 ft 4 kts 15°
2026-05-07 06:17 47.45949 8.55708 1406 ft 4 kts 76°
2026-05-07 06:18 47.45950 8.55670 1406 ft 4 kts 106°
2026-05-07 06:18 47.45955 8.55643 1408 ft 0 kts 96°
2026-05-07 06:20 47.45954 8.55654 1409 ft 4 kts 96°
2026-05-07 06:20 47.45946 8.55754 1409 ft 16 kts 97°
2026-05-07 06:21 47.45932 8.55950 1412 ft 21 kts 96°
2026-05-07 06:21 47.45917 8.56165 1410 ft 21 kts 95°
2026-05-07 06:21 47.45902 8.56377 1418 ft 20 kts 97°
2026-05-07 06:21 47.45826 8.56514 1421 ft 17 kts 140°
2026-05-07 06:22 47.45792 8.56669 1422 ft 16 kts 98°
2026-05-07 06:22 47.45758 8.56999 1424 ft 15 kts 119°
2026-05-07 06:22 47.45677 8.57024 1424 ft 10 kts 217°
2026-05-07 06:23 47.45668 8.56930 1423 ft 0 kts 277°
2026-05-07 06:23 47.45669 8.56918 1423 ft 11 kts 277°
2026-05-07 06:23 47.45703 8.56427 1416 ft 84 kts 276°
2026-05-07 06:23 47.45786 8.55250 1397 ft 143 kts 276°
2026-05-07 06:24 47.45903 8.53694 1868 ft 147 kts 274°
2026-05-07 06:24 47.45995 8.52173 2555 ft 148 kts 274°
2026-05-07 06:24 47.46078 8.50673 3249 ft 145 kts 274°
2026-05-07 06:24 47.46178 8.49123 3706 ft 160 kts 275°
2026-05-07 06:25 47.46183 8.47408 4155 ft 178 kts 253°
2026-05-07 06:25 47.45459 8.45818 4676 ft 200 kts 227°
2026-05-07 06:25 47.44413 8.44340 5339 ft 210 kts 232°
2026-05-07 06:25 47.43667 8.42509 6238 ft 209 kts 250°
2026-05-07 06:26 47.43185 8.40489 7215 ft 209 kts 253°
2026-05-07 06:26 47.42751 8.38426 8157 ft 212 kts 251°
2026-05-07 06:26 47.42010 8.36522 9036 ft 218 kts 232°
2026-05-07 06:26 47.40816 8.35104 9939 ft 226 kts 209°
2026-05-07 06:27 47.39234 8.34576 10742 ft 240 kts 181°
2026-05-07 06:27 47.37600 8.35259 11578 ft 253 kts 152°
2026-05-07 06:27 47.36690 8.36379 12128 ft 260 kts 131°
2026-05-07 06:27 47.35869 8.38811 12947 ft 267 kts 101°
2026-05-07 06:28 47.35920 8.41560 13757 ft 270 kts 72°
2026-05-07 06:28 47.36829 8.43956 14453 ft 270 kts 43°
2026-05-07 06:28 47.38362 8.45440 15125 ft 267 kts 14°
2026-05-07 06:28 47.40192 8.46034 15820 ft 269 kts 11°
2026-05-07 06:29 47.41880 8.47242 16499 ft 277 kts 38°
2026-05-07 06:29 47.43212 8.49352 17060 ft 289 kts 49°
2026-05-07 06:29 47.44478 8.51805 17283 ft 312 kts 54°
2026-05-07 06:29 47.45505 8.54822 17491 ft 335 kts 71°
2026-05-07 06:30 47.45935 8.58282 17698 ft 356 kts 87°
2026-05-07 06:30 47.46031 8.62046 17920 ft 376 kts 88°
2026-05-07 06:30 47.46148 8.65998 18256 ft 390 kts 87°
2026-05-07 06:30 47.46284 8.70029 18913 ft 394 kts 86°
2026-05-07 06:31 47.46475 8.74081 19605 ft 395 kts 80°
2026-05-07 06:31 47.47282 8.77969 20238 ft 397 kts 62°
2026-05-07 06:31 47.48853 8.81367 20911 ft 396 kts 45°
2026-05-07 06:31 47.50994 8.83898 21538 ft 395 kts 27°
2026-05-07 06:32 47.53537 8.85403 22186 ft 394 kts 11°
2026-05-07 06:32 47.56231 8.86020 22822 ft 395 kts
2026-05-07 06:32 47.58979 8.86502 23468 ft 397 kts
2026-05-07 06:32 47.61722 8.87136 24015 ft 400 kts
2026-05-07 06:33 47.64514 8.87951 24542 ft 403 kts 10°
2026-05-07 06:33 47.67234 8.88853 25056 ft 405 kts 11°
2026-05-07 06:33 47.70010 8.89826 25558 ft 408 kts 12°
2026-05-07 06:33 47.72748 8.90804 26055 ft 410 kts 12°
2026-05-07 06:34 47.75530 8.91801 26535 ft 412 kts 12°
2026-05-07 06:34 47.78285 8.92789 27001 ft 415 kts 12°
2026-05-07 06:34 47.81137 8.93809 27470 ft 417 kts 12°
2026-05-07 06:34 47.83966 8.94821 27907 ft 419 kts 12°
2026-05-07 06:35 47.86808 8.95839 28336 ft 422 kts 12°
2026-05-07 06:35 47.89679 8.96868 28748 ft 424 kts 12°
2026-05-07 06:35 47.92553 8.97899 29148 ft 426 kts 12°
2026-05-07 06:35 47.95490 8.98953 29542 ft 429 kts 12°
2026-05-07 06:36 47.98387 8.99995 29932 ft 431 kts 12°
2026-05-07 06:36 48.01346 9.01060 30246 ft 434 kts 12°
2026-05-07 06:36 48.04300 9.02125 30478 ft 438 kts 12°
2026-05-07 06:36 48.07285 9.03202 30744 ft 442 kts 12°
2026-05-07 06:37 48.10323 9.04300 31014 ft 445 kts 12°
2026-05-07 06:37 48.13338 9.05391 31326 ft 447 kts 12°
2026-05-07 06:37 48.16380 9.06493 31640 ft 450 kts 12°
2026-05-07 06:37 48.19470 9.07614 31944 ft 452 kts 12°
2026-05-07 06:38 48.22527 9.08724 32227 ft 454 kts 12°
2026-05-07 06:38 48.25600 9.09841 32515 ft 456 kts 12°
2026-05-07 06:38 48.28749 9.10986 32827 ft 458 kts 12°
2026-05-07 06:38 48.31863 9.12120 33123 ft 460 kts 12°
2026-05-07 06:39 48.34983 9.13258 33394 ft 462 kts 12°
2026-05-07 06:39 48.38144 9.14412 33675 ft 464 kts 12°
2026-05-07 06:39 48.41294 9.15564 33941 ft 466 kts 12°
2026-05-07 06:39 48.44458 9.16722 34192 ft 467 kts 12°
2026-05-07 06:40 48.47615 9.17880 34483 ft 467 kts 12°
2026-05-07 06:40 48.50817 9.19055 34764 ft 468 kts 12°
2026-05-07 06:40 48.53975 9.20215 35060 ft 468 kts 12°
2026-05-07 06:40 48.57145 9.21382 35319 ft 468 kts 12°
2026-05-07 06:41 48.60306 9.22546 35573 ft 468 kts 12°
2026-05-07 06:41 48.63481 9.23717 35814 ft 469 kts 12°
2026-05-07 06:41 48.66692 9.24903 36057 ft 469 kts 12°
2026-05-07 06:41 48.69866 9.26077 36283 ft 469 kts 12°
2026-05-07 06:42 48.73028 9.27248 36497 ft 470 kts 12°
2026-05-07 06:42 48.76246 9.28441 36731 ft 470 kts 12°
2026-05-07 06:42 48.78353 9.29223 36884 ft 470 kts 12°
2026-05-07 06:42 48.81569 9.30419 37149 ft 470 kts 12°
2026-05-07 06:43 48.84760 9.31606 37375 ft 471 kts 12°
2026-05-07 06:43 48.87996 9.32812 37626 ft 471 kts 12°
2026-05-07 06:43 48.91174 9.33998 37858 ft 472 kts 12°
2026-05-07 06:43 48.94363 9.35189 37973 ft 472 kts 12°
2026-05-07 06:44 49.00724 9.37570 37964 ft 470 kts 12°
2026-05-07 06:44 49.07135 9.39976 37965 ft 470 kts 12°
2026-05-07 06:45 49.13481 9.42364 37965 ft 470 kts 12°
2026-05-07 06:45 49.19889 9.44781 37963 ft 470 kts 12°
2026-05-07 06:46 49.26243 9.47185 37960 ft 470 kts 13°
2026-05-07 06:46 49.32631 9.49607 37958 ft 470 kts 13°
2026-05-07 06:47 49.38981 9.52022 37955 ft 469 kts 13°
2026-05-07 06:47 49.45365 9.54456 37955 ft 470 kts 13°
2026-05-07 06:48 49.51763 9.56902 37949 ft 470 kts 13°
2026-05-07 06:48 49.58069 9.59320 37933 ft 469 kts 13°
2026-05-07 06:49 49.64439 9.61769 37948 ft 469 kts 13°
2026-05-07 06:49 49.70762 9.64205 37948 ft 468 kts 13°
2026-05-07 06:50 49.77094 9.66653 37939 ft 468 kts 13°
2026-05-07 06:50 49.83414 9.69102 37926 ft 468 kts 13°
2026-05-07 06:51 49.89740 9.71560 37936 ft 468 kts 13°
2026-05-07 06:51 49.96061 9.74023 37916 ft 468 kts 13°
2026-05-07 06:52 50.02456 9.76505 37935 ft 468 kts 11°
2026-05-07 06:52 50.08898 9.77779 37924 ft 465 kts 360°
2026-05-07 06:53 50.15396 9.77399 37930 ft 464 kts 354°
2026-05-07 06:53 50.21843 9.76794 37924 ft 464 kts 355°
2026-05-07 06:54 50.28270 9.76172 37937 ft 464 kts 354°
2026-05-07 06:54 50.34712 9.75527 37923 ft 464 kts 354°
2026-05-07 06:55 50.41142 9.74876 37916 ft 464 kts 354°
2026-05-07 06:55 50.47582 9.74223 37920 ft 463 kts 354°
2026-05-07 06:56 50.54005 9.73570 37931 ft 463 kts 354°
2026-05-07 06:56 50.60470 9.72912 37916 ft 463 kts 354°
2026-05-07 06:57 50.66914 9.72253 37916 ft 463 kts 354°
2026-05-07 06:57 50.73380 9.71584 37922 ft 462 kts 354°
2026-05-07 06:58 50.79755 9.70919 37920 ft 462 kts 354°
2026-05-07 06:58 50.86171 9.70250 37918 ft 462 kts 354°
2026-05-07 06:59 50.91559 9.69858 37913 ft 462 kts 358°
2026-05-07 06:59 50.98024 9.69747 37914 ft 462 kts 358°
2026-05-07 07:00 51.04508 9.69595 37923 ft 462 kts 357°
2026-05-07 07:00 51.10967 9.69398 37936 ft 461 kts 358°
2026-05-07 07:01 51.17383 9.69196 37944 ft 461 kts 358°
2026-05-07 07:01 51.23626 9.69631 37938 ft 462 kts
2026-05-07 07:02 51.30107 9.70693 37938 ft 462 kts
2026-05-07 07:02 51.36504 9.71705 37947 ft 462 kts
2026-05-07 07:03 51.42913 9.72741 37943 ft 463 kts
2026-05-07 07:03 51.49301 9.73799 37956 ft 463 kts
2026-05-07 07:04 51.55717 9.75023 37948 ft 463 kts
2026-05-07 07:04 51.62191 9.76271 37956 ft 462 kts
2026-05-07 07:05 51.68664 9.77503 37951 ft 463 kts
2026-05-07 07:05 51.75108 9.78729 37957 ft 463 kts
2026-05-07 07:06 51.81629 9.79972 37964 ft 463 kts
2026-05-07 07:06 51.88107 9.81212 37973 ft 463 kts
2026-05-07 07:07 51.94611 9.82469 37981 ft 464 kts
2026-05-07 07:07 52.01092 9.83730 37977 ft 462 kts
2026-05-07 07:08 52.06498 9.84782 37966 ft 463 kts
2026-05-07 07:08 52.09734 9.85413 37767 ft 462 kts
2026-05-07 07:08 52.12965 9.86043 37219 ft 462 kts
2026-05-07 07:09 52.16175 9.86670 36447 ft 464 kts
2026-05-07 07:09 52.19440 9.87309 35579 ft 468 kts
2026-05-07 07:09 52.22685 9.87945 34715 ft 472 kts
2026-05-07 07:09 52.25978 9.88830 33912 ft 473 kts 13°
2026-05-07 07:10 52.29237 9.90264 32999 ft 472 kts 15°
2026-05-07 07:10 52.32451 9.91684 32111 ft 472 kts 14°
2026-05-07 07:10 52.35665 9.93085 31207 ft 472 kts 14°
2026-05-07 07:10 52.38962 9.94524 30225 ft 473 kts 14°
2026-05-07 07:11 52.42184 9.95938 29155 ft 474 kts 14°
2026-05-07 07:11 52.45392 9.97353 28368 ft 470 kts 14°
2026-05-07 07:11 52.48547 9.98748 27606 ft 465 kts 14°
2026-05-07 07:11 52.51689 10.00140 26885 ft 459 kts 14°
2026-05-07 07:12 52.54799 10.01520 26141 ft 456 kts 14°
2026-05-07 07:12 52.57849 10.02877 25436 ft 451 kts 14°
2026-05-07 07:12 52.60907 10.04241 24735 ft 447 kts 14°
2026-05-07 07:12 52.63894 10.05578 24066 ft 443 kts 14°
2026-05-07 07:13 52.66910 10.06928 23362 ft 440 kts 14°
2026-05-07 07:13 52.69843 10.08243 22691 ft 435 kts 14°
2026-05-07 07:13 52.72783 10.09559 21988 ft 430 kts 13°
2026-05-07 07:13 52.75813 10.10236 21282 ft 424 kts 359°
2026-05-07 07:14 52.78708 10.09659 20616 ft 417 kts 344°
2026-05-07 07:14 52.81370 10.07912 19970 ft 410 kts 329°
2026-05-07 07:14 52.83724 10.05276 19312 ft 405 kts 322°
2026-05-07 07:14 52.85968 10.02498 18697 ft 401 kts 322°
2026-05-07 07:15 52.87428 10.00688 18294 ft 398 kts 322°
2026-05-07 07:15 52.90367 9.97127 17726 ft 385 kts 323°
2026-05-07 07:15 52.91816 9.95406 17617 ft 374 kts 323°
2026-05-07 07:15 52.93893 9.92962 17407 ft 356 kts 324°
2026-05-07 07:16 52.96464 9.89952 17165 ft 330 kts 324°
2026-05-07 07:16 52.97708 9.88495 17037 ft 317 kts 324°
2026-05-07 07:16 52.99453 9.86451 16879 ft 300 kts 324°
2026-05-07 07:16 53.01099 9.84521 16669 ft 285 kts 324°
2026-05-07 07:17 53.02714 9.82626 16216 ft 281 kts 324°
2026-05-07 07:17 53.04310 9.80749 15760 ft 279 kts 324°
2026-05-07 07:17 53.05888 9.78894 15338 ft 277 kts 324°
2026-05-07 07:17 53.07463 9.77041 14916 ft 275 kts 324°
2026-05-07 07:18 53.08996 9.75235 14500 ft 273 kts 324°
2026-05-07 07:18 53.10538 9.73417 14096 ft 271 kts 324°
2026-05-07 07:18 53.12079 9.71600 13674 ft 269 kts 324°
2026-05-07 07:18 53.13600 9.69803 13221 ft 267 kts 324°
2026-05-07 07:19 53.15104 9.68026 12754 ft 265 kts 325°
2026-05-07 07:19 53.16635 9.66213 12291 ft 264 kts 325°
2026-05-07 07:19 53.18123 9.64451 11853 ft 262 kts 325°
2026-05-07 07:19 53.19592 9.62711 11417 ft 261 kts 325°
2026-05-07 07:20 53.21078 9.60950 10978 ft 259 kts 326°
2026-05-07 07:20 53.22539 9.59215 10571 ft 258 kts 326°
2026-05-07 07:20 53.23988 9.57496 10158 ft 256 kts 326°
2026-05-07 07:20 53.25450 9.55758 9725 ft 255 kts 326°
2026-05-07 07:21 53.26889 9.54046 9266 ft 254 kts 326°
2026-05-07 07:21 53.28323 9.52336 8794 ft 253 kts 327°
2026-05-07 07:21 53.29693 9.50505 8348 ft 252 kts 321°
2026-05-07 07:21 53.31028 9.48602 7925 ft 251 kts 322°
2026-05-07 07:22 53.32342 9.46749 7522 ft 249 kts 322°
2026-05-07 07:22 53.33791 9.45181 7089 ft 244 kts 345°
2026-05-07 07:22 53.35437 9.44971 6642 ft 237 kts 15°
2026-05-07 07:22 53.36852 9.46167 6259 ft 230 kts 45°
2026-05-07 07:23 53.37877 9.48231 5837 ft 229 kts 52°
2026-05-07 07:23 53.38858 9.50282 5486 ft 227 kts 52°
2026-05-07 07:23 53.39872 9.52349 5115 ft 226 kts 51°
2026-05-07 07:23 53.40852 9.54315 4758 ft 225 kts 51°
2026-05-07 07:24 53.41889 9.56308 4385 ft 223 kts 50°
2026-05-07 07:24 53.42896 9.58262 4101 ft 218 kts 52°
2026-05-07 07:24 53.43856 9.60188 4027 ft 216 kts 52°
2026-05-07 07:24 53.44824 9.62131 3972 ft 216 kts 52°
2026-05-07 07:25 53.46728 9.65952 3457 ft 211 kts 52°
2026-05-07 07:25 53.47666 9.67836 3292 ft 210 kts 53°
2026-05-07 07:25 53.48602 9.69716 3120 ft 212 kts 53°
2026-05-07 07:26 53.49548 9.71619 3028 ft 213 kts 52°
2026-05-07 07:26 53.50497 9.73528 3026 ft 212 kts 53°
2026-05-07 07:26 53.51434 9.75412 3024 ft 204 kts 53°
2026-05-07 07:26 53.52285 9.77117 3019 ft 179 kts 53°
2026-05-07 07:27 53.53085 9.78740 3020 ft 180 kts 53°
2026-05-07 07:27 53.53885 9.80350 2681 ft 178 kts 53°
2026-05-07 07:27 53.54666 9.81922 2415 ft 178 kts 53°
2026-05-07 07:27 53.55448 9.83498 2180 ft 166 kts 53°
2026-05-07 07:28 53.56145 9.84903 1943 ft 143 kts 53°
2026-05-07 07:28 53.56743 9.86108 1746 ft 127 kts 53°
2026-05-07 07:28 53.57277 9.87188 1551 ft 121 kts 53°
2026-05-07 07:28 53.57817 9.88295 1389 ft 121 kts 53°
2026-05-07 07:29 53.58361 9.89381 1214 ft 122 kts 52°
2026-05-07 07:29 53.58908 9.90463 1042 ft 121 kts 52°
2026-05-07 07:29 53.59440 9.91568 857 ft 122 kts 53°
2026-05-07 07:29 53.59968 9.92679 695 ft 120 kts 51°
2026-05-07 07:30 53.60508 9.93716 513 ft 115 kts 50°
2026-05-07 07:30 53.61022 9.94758 374 ft 120 kts 52°
2026-05-07 07:30 53.61550 9.95853 208 ft 118 kts 50°
2026-05-07 07:30 53.62082 9.96899 67 ft 118 kts 51°
2026-05-07 07:31 53.62570 9.97874 51 ft 89 kts 49°
2026-05-07 07:31 53.62843 9.98440 50 ft 45 kts 52°
2026-05-07 07:31 53.62987 9.98733 51 ft 30 kts 49°
2026-05-07 07:31 53.63085 9.99005 49 ft 22 kts 70°
2026-05-07 07:32 53.63084 9.99260 51 ft 22 kts 95°
2026-05-07 07:32 53.63138 9.99490 51 ft 22 kts 53°
2026-05-07 07:32 53.63238 9.99698 51 ft 23 kts 49°
2026-05-07 07:32 53.63348 9.99900 51 ft 24 kts 49°
2026-05-07 07:33 53.63440 10.00094 51 ft 21 kts 48°
2026-05-07 07:33 53.63438 10.00215 51 ft 11 kts 161°
2026-05-07 07:33 53.63355 10.00232 47 ft 14 kts 177°
2026-05-07 07:33 53.63252 10.00241 51 ft 16 kts 177°
2026-05-07 07:34 53.63128 10.00255 49 ft 19 kts 175°
2026-05-07 07:34 53.63100 10.00323 51 ft 6 kts 89°
2026-05-07 07:34 53.63107 10.00351 51 ft 1 kts 53°
2026-05-07 07:34 53.63112 10.00372 51 ft 2 kts 78°
2026-05-07 07:35 53.63112 10.00379 51 ft 0 kts 88°